Dewpoint
4 4 4 4 4 5 5 -1 -3 -0 6 6 6 6 6 7 7 3 -4 -13 -14 -6 -4 1 4 -0 -2 1 2 -1 1 -3 -5 -1 5 4 3 2 2 1 -0 -1 0 2 3
3 4 4 4 4 4 5 1 -8 -4 5 5 6 6 6 7 7 4 -9 -11 -14 -3 -2 -0 2 1 1 1 0 0 1 -1 0 1 4 1 2 2 1 1 0 -1 0 2 4
2 3 3 4 4 4 4 4 -6 -7 5 6 6 6 6 6 6 2 -2 -8 -12 -6 -2 -1 -1 1 -0 1 -0 -1 1 2 2 2 2 0 -1 1 1 -1 -2 -2 -0 2 4
2 2 3 3 3 4 2 4 -0 -8 2 6 6 7 6 6 2 -6 -7 -5 -10 -11 -2 1 1 2 -1 1 -1 1 0 2 1 1 1 -0 -1 -2 -2 -3 -3 -2 -1 2 4
2 2 2 3 3 3 -2 -2 1 -7 4 5 6 7 6 6 2 -1 1 -7 -10 -11 -3 2 3 -0 0 -1 -2 1 -0 -1 -1 -0 -2 -1 -2 -2 -3 -4 -3 -3 -1 1 2
2 2 2 2 3 3 -4 -8 -8 -4 4 6 6 7 6 5 -1 -8 -1 -8 -11 -7 -0 1 3 -0 -2 -1 -1 -0 -1 -1 -1 -2 -1 -2 -3 -3 -4 -5 -5 -4 -2 -1 0
2 2 2 2 2 1 -6 -8 -8 2 5 5 6 7 6 4 1 -2 -0 -7 -9 -5 -0 1 3 -2 -2 -0 -0 -0 0 -0 -1 -2 -2 -1 -2 -3 -5 -5 -6 -6 -5 -3 -2
1 1 1 2 -1 -6 -11 -6 -4 -1 5 5 7 7 6 2 0 3 1 -5 -1 3 0 -0 2 -3 -2 -0 -0 0 0 3 -1 -1 -2 -2 1 -5 -6 -6 -6 -7 -6 -5 -3
2 1 1 -8 -8 -12 -9 4 5 5 5 6 7 6 5 1 -2 3 0 -4 1 1 -0 2 1 -2 -1 -1 0 0 3 3 1 -4 -2 -2 -1 -5 -6 -6 -7 -7 -7 -6 -5
0 -3 -8 -11 -20 -9 4 5 5 5 5 6 6 5 4 -1 -3 1 3 -4 2 4 5 3 1 -1 -2 -0 3 2 2 2 2 -3 -4 -3 -3 -6 -7 -7 -7 -8 -8 -7 -6
-4 -8 -7 -8 -19 1 4 5 5 5 6 5 4 4 -1 -1 -0 3 5 1 1 -1 0 1 4 3 -0 -2 -2 -2 1 1 -1 -4 -4 -3 -4 -6 -7 -8 -8 -8 -9 -8 -7
-17 -7 -7 -7 -16 3 4 4 5 5 4 4 4 3 1 3 4 5 5 2 -1 -0 -1 1 6 2 -2 -3 -3 -1 1 -0 -3 -4 -4 -4 -4 -6 -7 -8 -8 -9 -9 -10 -10
-7 -3 -4 -0 -18 3 4 5 5 4 5 3 4 4 -1 1 4 4 4 -0 -2 -0 0 2 1 -1 -2 -2 -2 -1 0 -0 0 -4 -5 -4 -3 -5 -8 -9 -9 -10 -10 -10 -11
-3 -1 -2 -8 -9 2 4 5 6 3 1 0 2 2 -1 1 3 3 2 -2 -2 -1 -1 -1 -2 0 -0 -1 -2 0 -2 -1 -2 0 3 -4 3 -4 -7 -8 -10 -11 -11 -12 -12
-1 -2 -19 -10 -7 2 1 3 6 2 2 1 2 -1 -1 1 1 2 1 -2 -1 -1 -1 0 0 1 1 0 -2 -1 -2 -2 -2 -1 -1 -1 1 -2 -7 -6 -9 -11 -12 -12 -13
-0 -3 -18 -8 -5 2 3 3 1 1 3 2 0 0 0 -2 -1 1 -0 -2 -2 -1 -2 -2 -2 -1 -0 -2 -3 -2 -1 -1 -1 -0 3 0 1 0 -5 -6 -8 -11 -13 -14 -15
-0 -3 -6 -1 2 1 0 2 3 3 -2 2 2 -0 0 1 1 2 2 -0 0 1 1 -1 -0 -3 -3 -0 -2 -1 0 4 5 4 4 -1 1 -0 -8 -9 -9 -12 -14 -15 -17
-0 -1 -2 1 4 4 1 0 3 -2 0 2 2 0 1 0 1 1 4 5 -0 -1 1 3 3 -0 -2 -1 1 0 -1 3 4 5 3 -0 3 -0 -11 -11 -11 -13 -14 -16 -18
1 1 1 -0 3 -0 3 -0 0 0 1 3 2 2 2 1 0 2 5 6 3 0 1 2 1 -2 -2 -2 -2 0 1 -2 1 1 3 2 -3 -9 -12 -12 -13 -15 -16 -17 -19
-1 2 1 3 1 0 2 1 -0 -1 0 1 5 2 3 2 4 5 5 3 4 1 1 3 5 0 -2 -2 -2 -1 -2 1 2 5 5 2 -1 0 -9 -11 -14 -15 -16 -16 -19
-1 1 3 2 0 3 2 1 -1 -1 -1 2 4 4 3 1 4 5 5 1 -2 2 1 3 4 2 3 3 2 1 1 0 -1 1 2 3 1 -10 -9 -12 -13 -15 -16 -16 -19
-2 -4 2 1 1 -0 1 -0 -4 -4 -4 -1 3 3 3 3 3 4 5 -0 -6 -4 3 3 5 4 1 -6 -4 -0 -0 -1 2 4 2 2 1 -12 -11 -13 -14 -15 -16 -17 -19
-8 -9 1 2 1 -0 -2 -3 -6 -5 -4 -2 1 2 2 4 4 2 1 -6 -7 -5 2 2 4 4 2 1 -1 2 3 2 2 2 3 5 1 -11 -12 -14 -15 -15 -16 -17 -21
-12 -12 -5 -0 -2 -2 -2 -2 -2 -6 -7 -7 -6 -6 2 3 3 3 2 -1 -2 -4 -1 1 4 4 3 1 -0 1 1 2 5 6 3 3 -5 -9 -11 -13 -15 -15 -16 -18 -22
-15 -10 -9 -12 -4 -10 -10 -4 -3 -3 -7 -9 -7 -5 -2 1 3 2 -0 -2 -2 -2 -1 -0 2 0 -6 -6 -4 -3 -2 1 5 5 6 -0 0 -8 -10 -12 -14 -15 -16 -18 -22
-12 -10 -9 -10 -10 -12 -10 -5 -5 -7 -8 -6 -7 -8 -6 -0 0 2 -0 -1 -1 -2 -1 -1 1 -4 -5 -8 -6 -4 -4 -2 -3 -5 -5 -5 -6 -11 -11 -13 -13 -14 -15 -18 -21
-15 -10 -7 -9 -11 -11 -11 -9 -9 -9 -10 -9 -8 -9 -9 -8 -6 -3 -1 -2 -1 -2 -1 -1 -1 -1 0 -4 -2 0 -4 -3 -5 -7 -5 -2 -7 -12 -12 -12 -13 -13 -14 -14 -14
Wind_Speed
15 13 13 11 11 11 12 10 10 5 7 12 11 12 13 14 14 16 24 19 16 10 20 19 17 14 16 13 7 4 3 4 6 6 7 7 6 7 8 13 12 9 11 7 9
15 16 13 13 13 11 11 10 12 8 4 11 11 10 13 13 13 22 27 16 21 13 22 22 20 18 9 10 6 3 3 5 2 4 8 7 10 11 6 10 10 11 11 11 12
13 14 16 13 14 11 9 10 14 10 4 9 10 10 12 10 11 17 11 20 20 19 19 19 19 20 7 10 5 3 3 2 7 11 16 9 8 7 17 7 8 7 9 12 12
16 12 14 15 14 12 10 8 5 11 6 8 11 11 11 8 6 1 5 21 21 25 21 21 23 12 5 7 6 6 11 7 3 8 10 7 12 11 13 9 9 10 11 12 14
17 16 14 15 15 13 10 9 8 6 4 8 13 13 11 8 9 2 2 11 28 28 25 25 25 10 7 7 7 5 5 13 16 20 20 22 20 15 16 13 11 11 12 13 14
18 17 17 15 14 13 9 9 6 5 4 9 14 17 11 3 6 6 4 16 31 27 27 27 18 11 8 6 5 9 21 16 12 15 12 17 10 6 7 9 12 10 13 13 12
18 18 18 18 14 12 8 5 7 4 3 11 13 14 12 18 2 4 5 18 28 28 30 25 18 11 13 8 19 15 12 9 6 7 9 17 8 9 7 8 11 11 12 11 11
19 18 17 18 14 10 4 3 4 3 7 13 13 11 8 4 15 5 6 24 24 23 24 22 22 9 5 23 7 5 4 5 2 3 5 4 4 5 4 7 9 10 9 9 10
20 18 18 14 13 4 1 3 4 6 12 13 13 8 7 6 11 8 7 21 24 19 16 16 19 6 11 6 4 1 5 5 4 6 5 1 6 7 5 7 9 8 8 8 8
21 19 16 13 7 3 6 6 10 11 13 11 6 4 11 4 9 15 11 16 22 19 16 12 5 4 3 4 10 8 6 4 6 2 10 11 9 8 5 7 8 7 7 7 7
22 18 15 11 2 9 13 12 8 4 16 9 11 6 2 1 10 16 17 21 18 17 5 5 3 10 15 4 5 7 7 8 3 3 6 6 9 8 6 6 7 6 6 6 6
20 18 14 10 4 14 16 7 3 3 6 21 13 12 12 3 4 16 19 12 12 6 6 4 16 6 9 8 7 6 9 4 4 2 5 7 8 6 8 4 7 8 7 6 6
18 17 12 9 6 16 13 7 5 4 3 5 19 16 6 12 5 21 26 13 5 6 8 9 3 11 7 6 8 4 9 8 6 6 6 9 3 8 6 5 8 8 9 9 8
15 17 12 5 7 14 11 9 1 8 3 3 4 5 12 9 4 20 27 11 4 13 5 3 2 14 8 8 6 6 5 12 18 10 5 2 4 6 8 9 14 13 13 12 11
15 16 10 5 6 12 5 13 2 4 2 2 3 2 9 9 8 12 24 6 8 7 7 8 8 8 11 12 7 4 12 10 9 4 5 4 2 2 9 12 17 19 16 16 14
14 14 7 5 10 5 6 9 3 3 5 1 3 3 5 3 2 6 12 3 6 5 1 4 3 8 9 4 11 17 10 8 4 3 2 8 6 5 9 9 15 21 20 19 17
12 12 7 8 5 3 9 10 3 2 5 1 1 3 3 4 3 3 8 5 5 4 4 2 3 3 6 7 13 6 7 3 2 4 5 7 7 6 5 3 17 28 25 23 19
8 10 6 4 3 5 11 3 2 1 2 3 3 2 4 3 3 4 13 10 6 2 3 7 4 8 5 8 11 9 12 6 8 6 6 5 7 4 1 0 16 26 31 26 21
6 5 6 1 3 7 3 2 4 1 1 4 3 4 3 3 4 3 5 8 11 12 5 6 6 1 3 4 13 7 10 8 5 3 3 5 2 3 5 9 20 25 26 23 23
5 4 6 2 4 7 2 4 3 1 1 2 1 4 6 6 4 6 7 6 9 13 7 2 2 0 3 3 2 8 10 5 3 7 6 3 3 4 14 18 17 23 26 24 23
4 2 4 2 6 7 3 4 4 2 1 2 3 3 1 5 7 6 5 4 2 11 15 8 5 1 3 4 6 3 6 4 4 6 6 2 5 3 8 19 20 24 25 28 26
3 2 1 2 2 1 3 3 2 2 2 3 2 5 5 4 2 5 8 2 8 4 11 12 4 4 2 2 2 1 2 17 9 7 0 1 4 4 3 22 28 28 27 30 26
3 2 4 3 1 2 5 4 3 2 4 2 4 5 3 4 4 5 4 4 6 4 6 5 4 4 1 2 2 4 4 2 4 2 9 5 4 4 13 20 24 28 27 28 28
3 3 2 1 1 1 4 4 4 3 4 4 3 0 2 5 6 4 3 2 1 1 4 5 5 5 11 3 4 7 7 7 7 6 6 10 5 6 14 18 24 26 30 32 28
5 2 1 2 3 3 2 3 3 3 3 2 2 5 4 2 3 5 2 1 3 4 4 3 4 5 3 2 2 2 6 12 15 12 8 4 8 15 18 18 25 28 31 31 28
4 4 3 1 3 3 2 0 3 5 1 2 4 5 3 5 5 3 2 3 4 2 4 2 1 2 1 3 3 3 1 7 2 3 4 4 1 3 21 25 26 28 30 31 28
9 5 2 1 1 1 2 1 1 2 2 1 2 4 5 6 7 5 6 4 4 4 6 5 5 3 1 5 5 4 8 7 3 2 5 7 4 13 17 22 25 27 30 31 28
Wind_Direction
336 333 327 328 321 316 318 315 314 275 240 227 228 221 225 235 250 233 225 217 198 185 182 180 173 166 168 168 160 148 80 174 178 162 149 149 118 65 80 94 62 71 97 104 96
336 332 329 326 320 315 317 325 328 314 246 226 221 219 222 233 252 244 230 213 195 180 184 182 171 161 157 165 162 120 133 202 22 126 148 100 104 117 98 96 73 77 89 101 113
331 329 329 322 316 319 309 312 335 326 228 214 209 212 223 234 269 263 248 216 202 189 187 187 182 164 142 161 167 107 123 93 26 109 127 109 83 91 122 59 66 99 93 101 110
337 326 321 325 319 317 298 293 292 317 280 203 193 214 218 228 198 226 228 205 196 189 179 179 169 160 129 155 149 98 48 78 53 93 105 91 102 77 60 103 111 106 102 105 108
339 332 321 323 321 316 292 276 299 318 236 194 188 210 207 225 230 236 271 195 182 187 183 178 169 149 150 146 109 91 113 65 96 98 81 104 84 98 90 105 104 99 105 101 97
338 333 329 321 323 316 287 269 270 260 242 188 189 201 206 231 252 263 254 188 184 184 183 184 183 170 118 84 74 105 101 110 83 94 120 104 91 117 98 106 95 97 90 92 94
342 336 332 329 320 308 294 266 261 274 197 182 193 194 224 239 202 229 233 194 183 183 179 185 173 169 140 94 115 121 99 109 85 109 126 105 40 74 109 115 97 87 78 82 82
339 336 333 326 319 303 281 261 293 218 175 173 192 202 245 251 228 235 194 182 182 183 186 182 176 132 109 117 101 90 90 112 66 176 156 282 139 128 118 126 101 91 85 75 75
337 333 328 327 319 308 228 101 80 116 140 175 177 193 253 235 209 194 184 184 174 180 177 171 184 123 134 109 80 147 140 114 135 27 135 151 140 146 136 137 116 103 94 88 74
337 333 330 328 319 130 113 117 112 137 150 161 171 214 254 224 188 185 172 179 163 161 152 175 143 107 89 139 184 181 145 87 133 59 61 92 120 132 133 143 121 115 110 101 89
335 337 335 326 325 137 135 130 119 134 177 202 196 205 26 152 162 178 173 166 156 155 154 175 134 193 187 167 115 115 108 113 94 86 87 99 138 160 153 141 138 129 117 108 100
344 343 339 323 164 158 152 140 123 250 273 236 227 225 241 224 156 170 171 152 151 163 122 97 216 168 133 151 120 99 116 93 83 114 96 155 156 167 179 183 178 163 148 145 134
351 346 347 325 172 165 172 150 87 33 253 264 230 231 217 204 216 176 174 156 131 138 187 184 266 140 136 141 132 159 156 173 153 133 62 131 211 198 193 173 169 170 172 168 164
358 350 346 341 130 173 200 186 250 357 33 232 198 232 190 184 226 183 175 154 157 188 133 268 155 161 154 182 148 170 173 144 141 154 192 218 257 218 192 194 198 184 177 170 166
6 359 2 120 120 149 171 209 223 329 331 130 182 137 174 165 144 180 178 172 161 171 148 214 156 154 175 194 152 181 131 136 152 94 130 203 245 131 155 214 208 187 180 179 173
13 12 52 76 116 130 147 163 94 28 257 130 129 154 142 144 121 129 177 182 147 123 100 167 170 158 193 133 163 135 94 77 92 123 253 178 198 210 192 208 182 177 181 177 173
24 27 62 97 96 129 143 123 75 207 351 45 189 156 196 166 121 172 184 205 159 133 181 137 185 193 135 85 141 127 141 118 180 195 228 167 179 269 163 194 177 169 170 175 174
26 35 52 82 120 157 156 58 168 260 329 334 317 127 188 154 174 161 178 223 236 119 146 166 212 173 188 163 177 192 176 166 202 198 197 159 223 238 25 108 163 164 166 169 167
6 15 29 73 168 171 159 73 223 301 346 335 298 141 230 229 142 132 208 216 210 198 208 177 228 156 156 150 152 202 210 183 109 47 117 194 283 194 136 132 145 151 155 161 169
348 347 356 342 183 180 94 256 246 329 304 262 26 343 206 185 148 186 187 219 217 209 148 275 213 268 139 135 214 174 167 177 195 179 225 220 258 226 197 181 166 165 162 164 168
328 348 26 77 159 152 193 235 287 270 240 269 197 234 303 332 193 189 208 274 252 184 191 169 202 319 97 205 176 156 185 216 200 202 221 211 242 16 209 179 170 165 164 167 169
317 32 121 140 76 38 236 199 311 271 221 234 215 243 227 206 249 249 218 234 350 149 188 187 168 177 170 127 62 346 227 204 214 210 232 150 241 336 288 162 160 162 166 173 171
341 263 200 209 158 307 315 292 252 284 238 208 248 213 170 202 270 207 200 353 5 359 174 178 204 144 25 310 33 236 183 106 105 74 208 191 219 352 139 150 163 155 160 167 169
6 22 22 206 117 253 301 267 285 316 280 264 256 260 212 238 218 255 245 188 270 75 8 234 193 218 232 167 134 175 188 200 186 214 201 229 168 174 161 159 157 159 161 168 168
39 86 89 323 24 338 313 297 271 293 211 271 244 220 175 265 261 233 229 299 193 215 183 178 264 184 147 125 91 152 172 184 206 210 208 213 183 187 175 162 156 151 158 165 167
54 31 12 289 288 275 293 309 330 335 325 318 268 332 247 223 220 257 162 194 246 124 164 192 234 89 95 113 128 157 264 157 94 112 96 111 184 232 140 139 146 152 158 167 171
31 18 27 291 328 142 230 290 263 12 258 193 295 303 277 256 284 260 233 178 190 176 192 181 156 139 236 125 122 267 205 195 120 95 136 178 142 142 140 147 151 150 166 175 178
Height
1481 1479 1477 1476 1475 1473 1471 1469 1467 1467 1468 1470 1471 1473 1475 1476 1477 1476 1474 1478 1487 1485 1489 1492 1497 1497 1503 1504 1507 1508 1516 1520 1519 1521 1528 1531 1532 1543 1548 1548 1551 1557 1559 1561 1563
1478 1477 1475 1474 1472 1470 1469 1467 1466 1465 1466 1468 1469 1471 1472 1475 1475 1471 1471 1477 1481 1483 1487 1488 1494 1498 1501 1503 1505 1507 1515 1515 1515 1517 1522 1530 1531 1541 1550 1553 1559 1562 1562 1561 1563
1475 1474 1472 1470 1469 1468 1466 1465 1463 1465 1465 1466 1468 1469 1470 1473 1473 1465 1469 1474 1477 1481 1486 1490 1494 1497 1498 1501 1506 1508 1513 1517 1519 1519 1522 1526 1537 1541 1549 1559 1561 1563 1563 1563 1564
1473 1471 1469 1468 1466 1464 1463 1462 1461 1462 1462 1463 1465 1466 1469 1472 1473 1465 1466 1467 1473 1479 1485 1489 1492 1496 1499 1502 1503 1510 1518 1518 1524 1524 1527 1531 1537 1546 1553 1563 1563 1563 1563 1562 1563
1471 1468 1466 1465 1463 1461 1459 1458 1458 1459 1461 1462 1464 1465 1468 1470 1465 1465 1465 1466 1471 1476 1481 1486 1489 1493 1498 1499 1503 1510 1520 1522 1528 1528 1534 1534 1543 1548 1562 1563 1563 1564 1563 1562 1562
1469 1466 1463 1461 1459 1458 1457 1457 1457 1457 1459 1460 1463 1464 1467 1470 1464 1464 1464 1464 1467 1473 1479 1484 1488 1492 1496 1500 1503 1512 1521 1528 1532 1534 1540 1541 1550 1550 1568 1567 1564 1566 1563 1562 1563
1465 1463 1461 1458 1456 1455 1454 1455 1455 1455 1457 1460 1462 1463 1465 1461 1462 1463 1463 1464 1468 1472 1477 1483 1487 1490 1493 1500 1509 1515 1522 1530 1535 1537 1544 1541 1552 1566 1567 1568 1566 1566 1564 1563 1564
1462 1459 1456 1455 1453 1452 1452 1453 1453 1454 1456 1460 1462 1463 1462 1459 1461 1463 1464 1465 1470 1475 1480 1484 1488 1490 1492 1501 1510 1516 1521 1527 1537 1538 1541 1543 1560 1569 1567 1568 1567 1566 1565 1565 1565
1460 1456 1454 1451 1451 1451 1452 1453 1454 1454 1457 1460 1462 1464 1461 1457 1459 1462 1464 1466 1470 1476 1481 1485 1488 1490 1497 1501 1513 1515 1521 1529 1537 1539 1539 1542 1560 1567 1567 1568 1567 1566 1565 1565 1567
1457 1453 1450 1449 1448 1450 1452 1454 1456 1457 1459 1461 1462 1467 1458 1457 1457 1460 1463 1466 1470 1475 1481 1485 1486 1491 1496 1498 1503 1509 1514 1525 1529 1542 1542 1548 1560 1566 1567 1568 1566 1567 1566 1566 1567
1455 1451 1449 1448 1448 1450 1453 1456 1460 1461 1458 1455 1454 1455 1456 1456 1457 1459 1463 1467 1471 1475 1479 1481 1487 1487 1484 1490 1494 1501 1511 1526 1539 1542 1546 1554 1560 1565 1567 1567 1566 1567 1566 1567 1567
1453 1451 1448 1446 1446 1450 1453 1455 1457 1459 1457 1453 1454 1453 1455 1456 1457 1459 1463 1466 1470 1475 1478 1485 1480 1481 1485 1491 1495 1503 1516 1535 1542 1542 1543 1557 1560 1564 1565 1565 1565 1565 1566 1567 1568
1454 1450 1446 1444 1445 1450 1453 1456 1457 1456 1456 1449 1448 1450 1452 1455 1455 1455 1460 1462 1466 1474 1476 1477 1475 1479 1483 1491 1496 1504 1506 1529 1520 1542 1548 1551 1555 1561 1563 1564 1564 1564 1565 1567 1567
1452 1450 1447 1445 1450 1451 1455 1456 1457 1457 1458 1447 1447 1446 1449 1452 1454 1454 1457 1461 1466 1470 1475 1474 1473 1475 1483 1487 1489 1498 1498 1507 1523 1520 1525 1548 1520 1554 1556 1560 1561 1562 1564 1564 1566
1451 1451 1447 1446 1448 1450 1453 1455 1456 1457 1461 1447 1446 1445 1446 1450 1451 1452 1455 1458 1462 1465 1470 1468 1472 1476 1479 1475 1483 1491 1498 1509 1519 1524 1529 1545 1533 1534 1552 1554 1552 1555 1560 1562 1563
1453 1449 1447 1449 1451 1454 1453 1455 1459 1463 1460 1444 1443 1445 1447 1448 1449 1451 1455 1456 1458 1462 1464 1466 1466 1469 1469 1475 1478 1494 1502 1512 1516 1518 1518 1518 1518 1511 1538 1526 1538 1550 1555 1558 1561
1454 1452 1452 1453 1452 1453 1454 1457 1463 1468 1446 1447 1445 1444 1446 1447 1449 1449 1454 1456 1459 1465 1468 1466 1466 1465 1466 1479 1486 1485 1493 1513 1514 1517 1500 1519 1520 1489 1522 1524 1526 1536 1547 1554 1558
1456 1456 1456 1456 1455 1457 1459 1461 1466 1451 1450 1448 1445 1444 1447 1446 1447 1450 1453 1459 1454 1456 1466 1466 1471 1463 1460 1465 1476 1481 1473 1486 1491 1498 1493 1519 1501 1490 1525 1525 1527 1535 1542 1550 1555
1458 1458 1456 1455 1456 1457 1460 1473 1461 1452 1454 1452 1447 1446 1448 1445 1446 1448 1455 1452 1449 1452 1454 1462 1457 1455 1455 1456 1460 1476 1473 1469 1485 1497 1497 1498 1511 1526 1527 1528 1531 1535 1541 1548 1552
1458 1458 1458 1457 1457 1460 1464 1463 1457 1453 1452 1451 1452 1448 1446 1443 1449 1454 1453 1445 1444 1445 1451 1456 1455 1453 1454 1455 1457 1458 1461 1472 1476 1485 1484 1495 1500 1473 1519 1521 1528 1533 1538 1545 1550
1457 1457 1457 1455 1456 1458 1464 1458 1457 1455 1452 1452 1452 1453 1455 1448 1444 1447 1446 1440 1439 1441 1446 1455 1459 1461 1455 1454 1455 1458 1458 1459 1457 1467 1460 1469 1466 1495 1493 1507 1517 1528 1535 1540 1546
1456 1458 1457 1456 1458 1459 1453 1452 1455 1454 1453 1452 1450 1451 1451 1451 1450 1444 1440 1439 1443 1441 1444 1446 1450 1455 1456 1461 1462 1461 1453 1448 1450 1463 1475 1474 1466 1501 1499 1504 1514 1525 1532 1539 1545
1454 1454 1455 1454 1461 1462 1460 1458 1454 1452 1451 1450 1447 1446 1446 1449 1447 1445 1446 1445 1446 1443 1444 1446 1445 1450 1461 1463 1465 1461 1458 1461 1461 1463 1454 1459 1463 1501 1502 1509 1517 1522 1530 1536 1542
1454 1457 1457 1458 1458 1459 1459 1456 1454 1451 1451 1451 1447 1446 1448 1445 1446 1441 1444 1444 1442 1445 1446 1444 1439 1436 1420 1431 1441 1454 1456 1456 1453 1454 1454 1446 1493 1505 1504 1506 1514 1522 1528 1534 1541
1454 1461 1462 1463 1461 1460 1458 1454 1452 1452 1450 1450 1448 1446 1447 1449 1443 1442 1442 1443 1444 1443 1445 1446 1439 1441 1447 1447 1445 1448 1446 1451 1447 1447 1445 1462 1460 1486 1494 1503 1511 1520 1528 1533 1540
1457 1460 1462 1462 1459 1460 1457 1456 1457 1455 1452 1449 1452 1448 1446 1447 1442 1440 1442 1444 1442 1445 1444 1444 1439 1447 1454 1449 1448 1452 1455 1451 1461 1471 1476 1478 1482 1489 1497 1504 1513 1519 1527 1533 1539
1461 1461 1460 1460 1460 1461 1460 1455 1454 1456 1452 1450 1452 1452 1447 1443 1442 1441 1439 1438 1438 1441 1442 1442 1443 1444 1441 1456 1453 1447 1455 1453 1460 1466 1464 1466 1473 1489 1498 1504 1511 1519 1526 1532 1538